HAZ2147 ZSHC-ZSJN

Flight info

Callsign HAZ2147
Flight time 1h 14m
Altitude 36100
Route NIVIK5E NIVIK W135 DOGVI A470 DPX A593 ABTUB ABTUB8X
Aircraft A359/H-SDE2E3GHIJ3J4J5LM1ORWXY/LB1D1

Departure

Time 2026-04-21 12:29
Airport Hangzhou Xiaoshan International Airport (ZSHC)

Arrival

Time 2026-04-21 13:43
Airport Jinan Yaoqiang International Airport (ZSJN)
Time Latitude Longitude Altitude Speed Heading
2026-04-21 12:07 30.23680 120.41955 38 ft 0 kts 88°
2026-04-21 12:21 30.23680 120.41952 38 ft 2 kts 87°
2026-04-21 12:21 30.23676 120.41924 36 ft 4 kts 62°
2026-04-21 12:22 30.23659 120.41902 35 ft 4 kts 20°
2026-04-21 12:22 30.23634 120.41898 36 ft 4 kts 349°
2026-04-21 12:22 30.23614 120.41905 35 ft 0 kts 334°
2026-04-21 12:25 30.23620 120.41902 38 ft 3 kts 334°
2026-04-21 12:25 30.23661 120.41879 37 ft 10 kts 334°
2026-04-21 12:25 30.23743 120.41833 38 ft 16 kts 334°
2026-04-21 12:25 30.23855 120.41777 38 ft 19 kts 339°
2026-04-21 12:26 30.23971 120.41701 38 ft 16 kts 310°
2026-04-21 12:26 30.23971 120.41615 38 ft 12 kts 249°
2026-04-21 12:26 30.23929 120.41509 38 ft 17 kts 242°
2026-04-21 12:26 30.23867 120.41370 38 ft 22 kts 243°
2026-04-21 12:27 30.23792 120.41201 38 ft 24 kts 243°
2026-04-21 12:27 30.23739 120.41081 39 ft 12 kts 243°
2026-04-21 12:27 30.23702 120.40998 39 ft 14 kts 243°
2026-04-21 12:27 30.23734 120.40905 39 ft 15 kts 324°
2026-04-21 12:28 30.23840 120.40890 40 ft 17 kts 34°
2026-04-21 12:28 30.23901 120.41013 40 ft 23 kts 62°
2026-04-21 12:28 30.24072 120.41399 38 ft 89 kts 63°
2026-04-21 12:28 30.24452 120.42259 38 ft 150 kts 63°
2026-04-21 12:29 30.24986 120.43457 411 ft 172 kts 63°
2026-04-21 12:29 30.25529 120.44665 1279 ft 167 kts 66°
2026-04-21 12:29 30.26077 120.45914 1711 ft 186 kts 68°
2026-04-21 12:29 30.26702 120.47352 2016 ft 211 kts 68°
2026-04-21 12:30 30.27381 120.48887 2670 ft 217 kts 70°
2026-04-21 12:30 30.28085 120.50469 3255 ft 227 kts 69°
2026-04-21 12:30 30.29036 120.52002 3793 ft 244 kts 46°
2026-04-21 12:30 30.30562 120.52910 4319 ft 253 kts
2026-04-21 12:31 30.32267 120.52706 4972 ft 241 kts 329°
2026-04-21 12:31 30.33537 120.51613 5756 ft 218 kts 299°
2026-04-21 12:31 30.34193 120.50125 6589 ft 202 kts 281°
2026-04-21 12:31 30.34540 120.48558 7281 ft 202 kts 275°
2026-04-21 12:32 30.34537 120.46939 7716 ft 202 kts 255°
2026-04-21 12:32 30.34026 120.45415 7876 ft 211 kts 243°
2026-04-21 12:32 30.33320 120.43853 7857 ft 229 kts 242°
2026-04-21 12:32 30.32562 120.42209 7877 ft 233 kts 242°
2026-04-21 12:33 30.31806 120.40544 7872 ft 234 kts 243°
2026-04-21 12:33 30.31056 120.38875 7865 ft 234 kts 243°
2026-04-21 12:33 30.30308 120.37201 7883 ft 235 kts 243°
2026-04-21 12:33 30.29560 120.35520 7866 ft 235 kts 243°
2026-04-21 12:34 30.28814 120.33842 7881 ft 235 kts 243°
2026-04-21 12:34 30.28309 120.32706 7875 ft 235 kts 243°
2026-04-21 12:34 30.27565 120.31028 7882 ft 234 kts 243°
2026-04-21 12:34 30.27010 120.29265 7862 ft 235 kts 259°
2026-04-21 12:35 30.27068 120.27380 7875 ft 238 kts 282°
2026-04-21 12:35 30.27880 120.25648 7927 ft 260 kts 307°
2026-04-21 12:35 30.29392 120.24370 8290 ft 278 kts 326°
2026-04-21 12:35 30.31134 120.23344 8769 ft 282 kts 328°
2026-04-21 12:36 30.32894 120.22342 9282 ft 282 kts 328°
2026-04-21 12:36 30.34695 120.21400 9761 ft 286 kts 332°
2026-04-21 12:36 30.36568 120.20498 10233 ft 297 kts 333°
2026-04-21 12:36 30.38518 120.19549 10706 ft 311 kts 332°
2026-04-21 12:37 30.40550 120.18545 11148 ft 325 kts 332°
2026-04-21 12:37 30.42639 120.17506 11557 ft 338 kts 332°
2026-04-21 12:37 30.44845 120.16404 11982 ft 351 kts 332°
2026-04-21 12:37 30.47107 120.15265 12553 ft 357 kts 332°
2026-04-21 12:38 30.49272 120.13863 13185 ft 357 kts 322°
2026-04-21 12:38 30.51304 120.12194 13813 ft 360 kts 320°
2026-04-21 12:38 30.53309 120.10490 14354 ft 364 kts 320°
2026-04-21 12:38 30.55383 120.08727 14940 ft 367 kts 320°
2026-04-21 12:39 30.57447 120.06976 15497 ft 370 kts 320°
2026-04-21 12:39 30.59534 120.05206 16067 ft 373 kts 319°
2026-04-21 12:39 30.61644 120.03417 16603 ft 377 kts 319°
2026-04-21 12:39 30.63767 120.01617 17195 ft 379 kts 319°
2026-04-21 12:40 30.65908 119.99802 17764 ft 382 kts 319°
2026-04-21 12:40 30.68065 119.97972 18308 ft 386 kts 319°
2026-04-21 12:40 30.70238 119.96126 18798 ft 388 kts 319°
2026-04-21 12:40 30.72429 119.94265 19291 ft 391 kts 319°
2026-04-21 12:41 30.74630 119.92396 19828 ft 393 kts 319°
2026-04-21 12:41 30.76842 119.90518 20352 ft 395 kts 319°
2026-04-21 12:41 30.79066 119.88632 20885 ft 397 kts 318°
2026-04-21 12:41 30.81296 119.86719 21378 ft 399 kts 318°
2026-04-21 12:42 30.83534 119.84791 21850 ft 402 kts 318°
2026-04-21 12:42 30.85784 119.82850 22340 ft 404 kts 318°
2026-04-21 12:42 30.88048 119.80898 22892 ft 405 kts 318°
2026-04-21 12:42 30.90321 119.78939 23410 ft 407 kts 318°
2026-04-21 12:43 30.92604 119.76971 23828 ft 410 kts 318°
2026-04-21 12:43 30.94907 119.74986 24217 ft 413 kts 318°
2026-04-21 12:43 30.97226 119.72987 24617 ft 416 kts 318°
2026-04-21 12:43 30.99562 119.70973 25054 ft 419 kts 318°
2026-04-21 12:44 31.01915 119.68942 25490 ft 422 kts 318°
2026-04-21 12:44 31.04254 119.66922 25927 ft 425 kts 318°
2026-04-21 12:44 31.06640 119.64863 26386 ft 428 kts 318°
2026-04-21 12:44 31.09040 119.62790 26865 ft 430 kts 317°
2026-04-21 12:45 31.11485 119.60676 27319 ft 433 kts 317°
2026-04-21 12:45 31.13912 119.58575 27731 ft 437 kts 317°
2026-04-21 12:45 31.16362 119.56454 28154 ft 440 kts 318°
2026-04-21 12:45 31.18833 119.54314 28569 ft 443 kts 318°
2026-04-21 12:46 31.21312 119.52168 29009 ft 446 kts 317°
2026-04-21 12:46 31.23780 119.50030 29394 ft 449 kts 317°
2026-04-21 12:46 31.26297 119.47843 29778 ft 452 kts 317°
2026-04-21 12:46 31.28825 119.45644 30138 ft 455 kts 317°
2026-04-21 12:47 31.31372 119.43427 30481 ft 457 kts 317°
2026-04-21 12:47 31.33930 119.41200 30847 ft 459 kts 317°
2026-04-21 12:47 31.36495 119.38967 31197 ft 461 kts 317°
2026-04-21 12:47 31.39066 119.36727 31560 ft 463 kts 317°
2026-04-21 12:48 31.41657 119.34468 31863 ft 465 kts 317°
2026-04-21 12:48 31.44261 119.32196 32163 ft 467 kts 317°
2026-04-21 12:48 31.46868 119.29920 32458 ft 469 kts 317°
2026-04-21 12:48 31.49489 119.27630 32765 ft 471 kts 317°
2026-04-21 12:49 31.52121 119.25329 33036 ft 473 kts 317°
2026-04-21 12:49 31.54761 119.23021 33254 ft 476 kts 317°
2026-04-21 12:49 31.57423 119.20696 33522 ft 477 kts 317°
2026-04-21 12:49 31.60072 119.18361 33919 ft 476 kts 317°
2026-04-21 12:50 31.62704 119.16025 34279 ft 474 kts 317°
2026-04-21 12:50 31.65329 119.13687 34608 ft 472 kts 317°
2026-04-21 12:50 31.67864 119.11265 34922 ft 469 kts 314°
2026-04-21 12:50 31.70305 119.08741 35259 ft 467 kts 313°
2026-04-21 12:51 31.72717 119.06181 35538 ft 467 kts 313°
2026-04-21 12:51 31.75128 119.03622 35849 ft 466 kts 313°
2026-04-21 12:51 31.77540 119.01083 36023 ft 467 kts 313°
2026-04-21 12:52 31.82741 118.96477 36037 ft 473 kts 325°
2026-04-21 12:52 31.88866 118.93256 36039 ft 491 kts 333°
2026-04-21 12:53 31.95310 118.90355 36034 ft 500 kts 334°
2026-04-21 12:53 32.01839 118.87484 36031 ft 501 kts 334°
2026-04-21 12:54 32.08351 118.84588 36033 ft 500 kts 333°
2026-04-21 12:54 32.14862 118.81660 36035 ft 501 kts 333°
2026-04-21 12:55 32.21368 118.78721 36036 ft 501 kts 333°
2026-04-21 12:55 32.27873 118.75780 36048 ft 500 kts 333°
2026-04-21 12:56 32.34365 118.72841 36042 ft 499 kts 333°
2026-04-21 12:56 32.40855 118.69897 36043 ft 499 kts 333°
2026-04-21 12:57 32.47338 118.66952 36051 ft 499 kts 333°
2026-04-21 12:57 32.53831 118.63999 36064 ft 499 kts 333°
2026-04-21 12:58 32.60255 118.61074 36055 ft 497 kts 333°
2026-04-21 12:58 32.66709 118.58129 36057 ft 497 kts 333°
2026-04-21 12:59 32.73268 118.55451 36055 ft 501 kts 337°
2026-04-21 12:59 32.79986 118.53182 36080 ft 502 kts 338°
2026-04-21 13:00 32.86693 118.50905 36061 ft 501 kts 337°
2026-04-21 13:00 32.93372 118.48550 36063 ft 500 kts 336°
2026-04-21 13:01 33.00038 118.46158 36065 ft 500 kts 336°
2026-04-21 13:01 33.06697 118.43760 36063 ft 500 kts 336°
2026-04-21 13:02 33.13359 118.41362 36066 ft 500 kts 336°
2026-04-21 13:02 33.23359 118.37758 36068 ft 500 kts 336°
2026-04-21 13:03 33.30025 118.35354 36067 ft 502 kts 336°
2026-04-21 13:03 33.36730 118.32937 36074 ft 504 kts 336°
2026-04-21 13:04 33.43446 118.30513 36074 ft 504 kts 336°
2026-04-21 13:04 33.50165 118.28083 36073 ft 504 kts 336°
2026-04-21 13:05 33.56886 118.25648 36107 ft 504 kts 336°
2026-04-21 13:05 33.63599 118.23212 36086 ft 503 kts 336°
2026-04-21 13:06 33.70297 118.20777 36085 ft 503 kts 336°
2026-04-21 13:06 33.76997 118.18336 36091 ft 503 kts 336°
2026-04-21 13:07 33.83699 118.15895 36111 ft 503 kts 336°
2026-04-21 13:07 33.90388 118.13466 36095 ft 501 kts 336°
2026-04-21 13:08 33.97066 118.11035 36104 ft 501 kts 336°
2026-04-21 13:08 34.03745 118.08609 36110 ft 501 kts 336°
2026-04-21 13:09 34.10422 118.06187 36125 ft 502 kts 335°
2026-04-21 13:09 34.17074 118.03762 36117 ft 504 kts 335°
2026-04-21 13:10 34.23788 118.01314 36120 ft 504 kts 336°
2026-04-21 13:10 34.30510 117.98873 36120 ft 505 kts 336°
2026-04-21 13:11 34.37300 117.96454 36128 ft 505 kts 336°
2026-04-21 13:11 34.43996 117.94071 36128 ft 506 kts 336°
2026-04-21 13:12 34.50743 117.91662 36131 ft 506 kts 336°
2026-04-21 13:12 34.57495 117.89245 36131 ft 506 kts 336°
2026-04-21 13:13 34.64241 117.86824 36137 ft 506 kts 336°
2026-04-21 13:13 34.70987 117.84398 36136 ft 506 kts 336°
2026-04-21 13:14 34.77732 117.81969 36141 ft 506 kts 336°
2026-04-21 13:14 34.84475 117.79535 36167 ft 505 kts 335°
2026-04-21 13:15 34.91204 117.77083 36151 ft 504 kts 335°
2026-04-21 13:15 34.97909 117.74618 36147 ft 503 kts 335°
2026-04-21 13:16 35.04623 117.72150 36147 ft 504 kts 335°
2026-04-21 13:16 35.11339 117.69692 36157 ft 503 kts 335°
2026-04-21 13:17 35.17995 117.67252 36158 ft 493 kts 334°
2026-04-21 13:17 35.24509 117.64860 36158 ft 486 kts 334°
2026-04-21 13:18 35.30970 117.62476 36157 ft 485 kts 334°
2026-04-21 13:18 35.37433 117.60089 36159 ft 484 kts 334°
2026-04-21 13:19 35.40643 117.58907 35681 ft 480 kts 334°
2026-04-21 13:19 35.43849 117.57719 34818 ft 483 kts 334°
2026-04-21 13:19 35.45984 117.56927 34277 ft 485 kts 334°
2026-04-21 13:19 35.49223 117.55726 33397 ft 487 kts 335°
2026-04-21 13:20 35.52475 117.54520 32459 ft 489 kts 335°
2026-04-21 13:20 35.56793 117.52919 31304 ft 490 kts 336°
2026-04-21 13:20 35.60055 117.51709 30614 ft 488 kts 336°
2026-04-21 13:20 35.62244 117.50899 30243 ft 484 kts 336°
2026-04-21 13:21 35.65454 117.49709 29606 ft 479 kts 336°
2026-04-21 13:21 35.68625 117.48532 29014 ft 473 kts 336°
2026-04-21 13:21 35.71759 117.47367 28442 ft 468 kts 336°
2026-04-21 13:21 35.74857 117.46212 27874 ft 463 kts 336°
2026-04-21 13:22 35.77930 117.45067 27310 ft 459 kts 336°
2026-04-21 13:22 35.80968 117.43933 26755 ft 455 kts 336°
2026-04-21 13:22 35.83941 117.42822 26217 ft 451 kts 336°
2026-04-21 13:22 35.86935 117.41703 25651 ft 448 kts 336°
2026-04-21 13:23 35.89906 117.40591 25106 ft 445 kts 336°
2026-04-21 13:23 35.92854 117.39487 24558 ft 442 kts 336°
2026-04-21 13:23 35.95786 117.38388 24012 ft 439 kts 336°
2026-04-21 13:23 35.98710 117.37330 23420 ft 439 kts 339°
2026-04-21 13:24 36.01750 117.36796 22785 ft 445 kts 352°
2026-04-21 13:24 36.04846 117.36739 22197 ft 443 kts 354°
2026-04-21 13:24 36.07911 117.36755 21638 ft 439 kts 354°
2026-04-21 13:24 36.10960 117.36767 21046 ft 436 kts 354°
2026-04-21 13:25 36.13979 117.36775 20475 ft 432 kts 354°
2026-04-21 13:25 36.16971 117.36782 19901 ft 428 kts 354°
2026-04-21 13:25 36.19938 117.36786 19318 ft 425 kts 355°
2026-04-21 13:25 36.22884 117.36789 18742 ft 422 kts 355°
2026-04-21 13:26 36.25808 117.36791 18142 ft 419 kts 355°
2026-04-21 13:26 36.28709 117.36792 17542 ft 414 kts 356°
2026-04-21 13:26 36.31573 117.36794 16963 ft 409 kts 357°
2026-04-21 13:26 36.34398 117.36796 16422 ft 403 kts 357°
2026-04-21 13:27 36.37182 117.36797 15869 ft 398 kts 358°
2026-04-21 13:27 36.39934 117.36798 15345 ft 392 kts 358°
2026-04-21 13:27 36.42646 117.36798 14827 ft 387 kts 358°
2026-04-21 13:27 36.45313 117.36799 14325 ft 382 kts 358°
2026-04-21 13:28 36.47958 117.36800 13813 ft 377 kts 359°
2026-04-21 13:28 36.50569 117.36808 13286 ft 372 kts 359°
2026-04-21 13:28 36.53121 117.36810 12811 ft 365 kts
2026-04-21 13:28 36.55645 117.36812 12335 ft 360 kts
2026-04-21 13:29 36.58129 117.36822 11870 ft 354 kts
2026-04-21 13:29 36.60582 117.36825 11389 ft 350 kts
2026-04-21 13:29 36.63004 117.36825 10945 ft 345 kts
2026-04-21 13:29 36.65358 117.36827 10811 ft 331 kts
2026-04-21 13:30 36.67607 117.36829 10706 ft 317 kts
2026-04-21 13:30 36.69761 117.36832 10586 ft 304 kts
2026-04-21 13:30 36.71837 117.36836 10452 ft 292 kts
2026-04-21 13:30 36.73838 117.36840 10316 ft 282 kts
2026-04-21 13:31 36.75762 117.36845 10194 ft 272 kts
2026-04-21 13:31 36.77641 117.36849 9914 ft 269 kts
2026-04-21 13:31 36.79564 117.36856 9679 ft 284 kts
2026-04-21 13:31 36.81559 117.36863 9466 ft 288 kts
2026-04-21 13:32 36.83566 117.36870 9095 ft 288 kts
2026-04-21 13:32 36.85563 117.36871 8786 ft 287 kts
2026-04-21 13:32 36.87556 117.36871 8498 ft 287 kts
2026-04-21 13:32 36.89544 117.36873 8221 ft 287 kts
2026-04-21 13:33 36.91546 117.36874 7936 ft 287 kts
2026-04-21 13:33 36.93539 117.36876 7661 ft 286 kts
2026-04-21 13:33 36.95527 117.36880 7381 ft 285 kts
2026-04-21 13:33 36.97507 117.36882 7108 ft 284 kts
2026-04-21 13:34 36.99482 117.36884 6817 ft 283 kts
2026-04-21 13:34 37.01450 117.36886 6546 ft 283 kts
2026-04-21 13:34 37.03418 117.36889 6264 ft 282 kts
2026-04-21 13:34 37.05366 117.36894 6064 ft 276 kts
2026-04-21 13:35 37.07221 117.36901 5956 ft 264 kts
2026-04-21 13:35 37.09023 117.36874 5819 ft 254 kts 356°
2026-04-21 13:35 37.10651 117.36226 5700 ft 243 kts 324°
2026-04-21 13:35 37.11686 117.34650 5485 ft 233 kts 289°
2026-04-21 13:36 37.11955 117.32688 5296 ft 229 kts 269°
2026-04-21 13:36 37.11955 117.30674 5077 ft 228 kts 266°
2026-04-21 13:36 37.11933 117.28716 4869 ft 227 kts 266°
2026-04-21 13:36 37.11919 117.26741 4637 ft 226 kts 266°
2026-04-21 13:37 37.11876 117.24784 4373 ft 223 kts 261°
2026-04-21 13:37 37.11276 117.23066 4131 ft 215 kts 223°
2026-04-21 13:37 37.10025 117.22114 3885 ft 211 kts 201°
2026-04-21 13:37 37.08614 117.21678 3679 ft 206 kts 186°
2026-04-21 13:38 37.07213 117.21614 3594 ft 195 kts 180°
2026-04-21 13:38 37.05889 117.21619 3558 ft 188 kts 180°
2026-04-21 13:38 37.04584 117.21622 3495 ft 185 kts 181°
2026-04-21 13:38 37.03323 117.21599 3297 ft 179 kts 181°
2026-04-21 13:39 37.02094 117.21590 3037 ft 175 kts 180°
2026-04-21 13:39 37.00888 117.21595 2789 ft 172 kts 180°
2026-04-21 13:39 36.99710 117.21595 2552 ft 168 kts 180°
2026-04-21 13:39 36.98554 117.21594 2335 ft 163 kts 180°
2026-04-21 13:40 36.97439 117.21594 2108 ft 158 kts 180°
2026-04-21 13:40 36.96361 117.21594 1902 ft 152 kts 180°
2026-04-21 13:40 36.95317 117.21594 1700 ft 148 kts 180°
2026-04-21 13:40 36.94298 117.21595 1477 ft 144 kts 181°
2026-04-21 13:41 36.93310 117.21595 1302 ft 140 kts 181°
2026-04-21 13:41 36.92347 117.21594 1109 ft 137 kts 181°
2026-04-21 13:41 36.91401 117.21595 933 ft 135 kts 181°
2026-04-21 13:41 36.90458 117.21594 743 ft 136 kts 182°
2026-04-21 13:42 36.89512 117.21595 566 ft 136 kts 182°
2026-04-21 13:42 36.88572 117.21595 381 ft 135 kts 182°
2026-04-21 13:42 36.87631 117.21595 215 ft 135 kts 182°
2026-04-21 13:42 36.86697 117.21595 95 ft 133 kts 181°
2026-04-21 13:43 36.85953 117.21594 94 ft 68 kts 180°
2026-04-21 13:43 36.85731 117.21593 96 ft 19 kts 180°
2026-04-21 13:43 36.85580 117.21568 94 ft 25 kts 195°
2026-04-21 13:43 36.85437 117.21479 92 ft 17 kts 213°
2026-04-21 13:44 36.85373 117.21400 90 ft 11 kts 271°
2026-04-21 13:44 36.85405 117.21300 89 ft 14 kts 289°
2026-04-21 13:44 36.85410 117.21166 90 ft 17 kts 252°
2026-04-21 13:44 36.85367 117.21035 90 ft 16 kts 249°
2026-04-21 13:45 36.85356 117.20991 91 ft 1 kts 254°
2026-04-21 13:45 36.85353 117.20964 91 ft 6 kts 261°
2026-04-21 13:45 36.85351 117.20897 91 ft 10 kts 269°
2026-04-21 13:45 36.85351 117.20870 91 ft 0 kts 269°